User: anonymous   Login
Location: *
(37.5724°S, 58.0067°E)
Time: 19:56:23
(UTC+00:00)
Language:

CZ-3A R/B - Orbit

View from above orbital plane
View from above orbital plane
View from above satellite
View from above satellite

Ground track
Ground track

The orbit data is extracted from the following two-line orbital elements,

1 37385U 11013B   21134.39121165 -.00000097  00000-0  00000+0 0  9997
2 37385  55.4795 268.3021 6500847 309.2578   9.0541  2.63325676 96137
Epoch (UTC): 14 May 2021 09:23:20
Eccentricity: 0.6500847
inclination: 55.4795°
perigee height: 1373 km
apogee height: 30173 km
right ascension of ascending node: 268.3021°
argument of perigee: 309.2578°
revolutions per day: 2.63325676
mean anomaly at epoch: 9.0541°
orbit number at epoch: 9613

The dashed part of the orbit path shows where the satellite is in the earth's shadow,  

DLR